This is the latest recevied weather packets stored in our database for station/object DC1SK-6. If no packets are shown the sender has not sent any weather packets the latest 10 day(s).
| Time | Temp. | Humidity | Pressure | Rain* | Wind** | Luminosity | Snow |
|---|---|---|---|---|---|---|---|
| 1777383129 | 16.11° C | 43% | - | 0 mm | - | 584 W/m² | - |
| 1777382640 | 16.11° C | 43% | - | 0 mm | - | 580 W/m² | - |
| 1777382054 | 16.67° C | 43% | - | 0 mm | - | 433 W/m² | - |
| 1777381454 | 16.11° C | 44% | - | 0 mm | - | 598 W/m² | - |
| 1777380964 | 16.11° C | 46% | - | 0 mm | - | 635 W/m² | - |
| 1777380412 | 15.56° C | 47% | - | 0 mm | - | 164 W/m² | - |
| 1777379894 | 15.56° C | 47% | - | 0 mm | - | 574 W/m² | - |
| 1777379304 | 15.56° C | 49% | - | 0 mm | - | 485 W/m² | - |
| 1777378738 | 15.56° C | 49% | - | 0 mm | - | 586 W/m² | - |
| 1777378164 | 16.11° C | 50% | - | 0 mm | - | 613 W/m² | - |
| 1777377679 | 16.11° C | 50% | - | 0 mm | - | 613 W/m² | - |
| 1777377129 | 16.11° C | 50% | - | 0 mm | - | 613 W/m² | - |
| 1777376584 | 16.11° C | 51% | - | 0 mm | - | 751 W/m² | - |
| 1777376049 | 15.56° C | 51% | - | 0 mm | - | 668 W/m² | - |
| 1777375534 | 15° C | 50% | - | 0 mm | - | 690 W/m² | - |
| 1777374959 | 15° C | 51% | - | 0 mm | - | 690 W/m² | - |
| 1777374404 | 15° C | 51% | - | 0 mm | - | 616 W/m² | - |
| 1777373859 | 15° C | 51% | - | 0 mm | - | 616 W/m² | - |
| 1777373259 | 15° C | 53% | - | 0 mm | - | 694 W/m² | - |
| 1777372679 | 15° C | 51% | - | 0 mm | - | 679 W/m² | - |
| 1777372134 | 15° C | 52% | - | 0 mm | - | 679 W/m² | - |
| 1777371614 | 14.44° C | 52% | - | 0 mm | - | 647 W/m² | - |
| 1777371126 | 14.44° C | 51% | - | 0 mm | - | 716 W/m² | - |
| 1777370579 | 13.89° C | 53% | - | 0 mm | - | 738 W/m² | - |
| 1777370079 | 14.44° C | 52% | - | 0 mm | - | 560 W/m² | - |
* Rain latest hour (hover to see other rain measurements)
** Current wind speed in m/s (hover to see current wind gust speed)